GFSNGP_sfc_dewp_000.txt.gz
Dewpoint
33 32 32 32 31 30 29 29 28 28 27 27 29 29 32 34 35 35 34 36 39 39 38 39 41 41 35 32 33 31 29 28 32 36 35 33 32 32 31 31 28 28 25 25
35 34 33 31 32 32 30 28 27 29 29 30 29 30 33 35 35 36 38 39 40 38 38 40 40 40 32 31 31 30 30 37 39 36 33 32 32 31 31 29 27 25 25 25
32 33 33 32 31 31 30 29 29 28 30 29 29 33 35 37 37 39 39 40 40 39 40 40 39 36 34 34 39 40 40 37 36 36 30 30 29 28 28 26 26 25 24 24
33 33 27 29 30 30 30 30 30 28 28 30 32 37 37 39 40 40 41 41 40 41 40 39 37 37 40 41 38 37 36 36 35 30 27 27 28 26 25 24 24 23 24 24
32 32 31 31 30 32 31 30 31 31 35 36 37 40 39 40 41 43 41 40 40 38 39 38 38 40 40 40 39 38 33 27 25 26 26 27 25 23 24 23 22 23 23 24
37 30 27 33 30 32 32 29 39 38 38 40 39 37 39 41 41 41 40 39 36 38 38 38 39 39 36 35 33 27 26 25 24 26 25 22 22 22 22 22 20 23 23 26
34 32 32 33 32 36 31 35 41 41 41 40 39 41 42 41 41 41 38 34 38 37 37 37 37 35 30 25 25 23 23 24 24 23 21 21 22 21 20 20 24 25 25 26
33 32 30 34 36 36 38 42 41 42 42 41 40 40 40 39 40 38 35 37 36 37 36 35 33 33 23 17 19 21 23 24 23 22 21 19 21 19 20 21 23 24 23 24
32 33 36 37 37 40 40 42 42 43 39 39 39 38 39 39 37 36 36 36 36 36 35 35 30 20 20 23 20 23 23 23 23 23 22 20 18 19 19 20 23 23 24 22
35 34 35 37 39 40 41 41 42 40 40 40 36 33 32 35 36 35 36 36 36 35 31 28 25 21 21 23 25 22 23 25 24 24 22 20 19 20 18 22 23 23 21 21
35 37 37 38 40 40 41 41 41 41 41 32 30 28 30 35 34 35 36 35 35 32 30 25 26 26 23 25 25 24 26 25 25 25 22 20 20 20 22 24 24 22 23 25
35 37 40 39 40 40 39 41 40 34 29 29 29 33 35 34 34 34 35 35 31 30 24 23 25 25 26 27 27 27 25 25 26 24 23 22 19 20 24 25 25 25 25 27
37 37 37 38 37 38 40 40 32 28 29 32 36 35 34 34 34 32 32 35 31 23 23 26 26 26 28 30 29 27 26 26 24 22 23 22 22 21 20 23 25 25 25 25
37 38 38 37 37 37 32 28 28 28 32 33 35 34 34 33 35 33 31 24 23 22 23 28 26 25 26 26 29 27 27 24 25 24 23 23 23 23 22 21 21 21 24 22
37 37 35 32 30 26 26 27 28 30 33 33 33 35 34 33 32 28 25 24 27 24 23 26 25 27 28 28 27 26 26 25 25 24 24 23 24 22 22 21 22 22 22 21
35 31 28 27 26 26 26 28 29 32 35 34 35 34 33 30 28 27 26 29 28 29 29 27 26 30 28 28 27 26 25 22 20 24 23 23 22 21 21 21 22 22 21 20
34 31 30 29 26 27 27 29 34 34 34 34 33 31 29 29 29 30 31 29 29 28 28 27 28 30 29 28 27 25 26 25 23 25 23 23 23 20 21 21 22 22 21 22
25 26 25 27 27 29 32 36 36 35 34 32 29 27 27 27 28 28 29 29 27 27 28 29 29 30 28 28 25 25 27 26 25 24 24 24 22 22 21 20 20 21 21 21
25 25 25 26 31 34 35 36 35 34 31 29 27 26 27 28 28 28 28 26 26 27 30 28 29 27 28 27 23 26 28 26 25 23 24 20 22 21 20 21 20 21 21 19
25 26 30 31 33 34 34 34 33 32 32 29 28 29 30 31 27 26 27 27 28 30 29 28 28 28 28 27 23 25 28 25 24 23 23 22 23 19 20 18 20 19 20 19
33 34 34 34 33 33 34 31 30 29 31 28 27 28 27 28 28 30 28 27 31 31 29 29 30 29 30 27 24 29 26 25 25 24 23 21 22 20 21 20 20 19 18 18
32 33 34 34 33 33 34 32 32 31 30 30 28 27 29 30 30 29 27 28 27 30 30 28 29 32 30 28 28 29 27 26 24 24 23 21 19 18 19 19 18 19 18 18
34 35 34 34 34 34 34 33 32 32 31 30 30 30 29 29 30 28 26 29 27 29 28 28 31 30 27 28 29 29 27 26 25 24 23 23 19 16 18 18 18 17 16 17
34 34 35 35 34 33 32 32 32 32 31 31 31 30 29 31 31 34 32 28 30 31 30 31 29 28 25 28 28 28 28 27 26 25 23 13 19 17 18 18 17 17 16 14
34 34 34 34 32 32 32 30 31 32 30 31 32 32 31 30 29 31 31 31 31 31 31 30 27 26 26 28 28 28 28 27 26 25 24 22 18 16 19 18 16 15 14 14
35 33 32 32 32 34 30 30 31 32 33 34 33 33 32 32 30 31 32 32 32 30 30 31 30 29 28 28 28 28 27 26 23 22 21 20 18 15 16 17 16 16 15 13
34 33 32 32 34 34 33 33 34 34 33 32 30 31 31 31 31 29 30 31 30 30 31 31 31 30 28 29 29 28 27 26 23 24 23 21 19 17 16 16 16 15 14 13

GFSNGP_sfc_dewp_003.txt.gz
Dewpoint
34 35 34 34 32 32 31 30 28 29 28 29 28 30 34 35 36 36 39 39 40 39 40 38 40 40 36 33 34 33 29 29 33 34 33 31 31 29 30 30 30 30 29 27
34 35 35 32 32 31 31 31 30 29 27 30 27 35 36 37 38 39 39 39 39 40 40 40 40 37 36 36 38 39 38 39 39 37 35 33 30 31 31 29 28 26 25 26
31 34 33 26 29 30 30 29 29 28 30 36 36 36 37 38 39 39 40 40 40 40 40 40 40 36 36 38 39 40 40 38 39 39 38 37 32 28 27 25 24 23 23 23
31 29 26 30 31 29 30 31 32 36 38 39 40 41 40 39 40 39 39 40 40 39 38 38 37 38 39 40 41 39 38 37 38 39 36 27 27 26 23 22 21 21 22 23
31 29 29 31 32 31 29 28 38 37 37 38 41 40 39 40 41 40 40 40 39 39 38 38 37 38 39 39 40 40 37 35 28 27 25 25 23 21 21 20 19 21 22 23
28 24 24 27 31 36 34 29 40 41 42 41 40 35 35 40 41 40 41 40 37 38 37 37 37 38 37 34 36 25 24 24 25 25 23 21 20 19 19 19 19 22 23 26
19 27 28 32 34 40 28 32 39 43 43 42 39 39 41 41 40 39 38 36 36 36 37 37 35 31 27 16 19 23 25 25 24 23 21 20 20 20 18 19 22 19 18 21
29 30 25 36 35 29 34 39 40 40 40 40 41 41 38 38 38 37 36 36 36 36 35 34 31 27 13 16 20 24 24 24 23 23 21 20 18 18 19 20 19 17 14 18
31 29 35 36 35 37 37 38 41 41 41 41 41 39 35 31 36 35 35 35 36 36 34 32 23 20 22 23 24 25 25 25 24 23 23 19 18 19 20 20 18 17 21 19
32 33 34 36 36 37 38 40 42 43 43 39 38 36 30 34 33 34 35 35 35 33 29 29 23 23 23 27 27 24 25 25 25 24 22 20 20 21 20 17 16 20 19 21
34 35 35 36 37 39 41 45 45 42 40 39 34 34 34 33 33 33 34 34 35 31 30 26 26 26 26 26 26 26 26 25 25 24 22 21 21 20 22 21 19 22 22 24
33 35 36 37 39 41 42 42 43 40 34 34 35 34 33 33 33 33 33 35 34 32 24 24 25 24 27 27 26 26 26 25 23 21 21 22 21 21 23 25 25 24 24 27
38 38 38 40 40 38 38 39 32 31 34 35 35 33 33 32 32 33 35 34 29 23 24 25 25 24 27 27 27 25 23 25 23 22 21 19 20 19 17 19 23 23 24 25
38 39 40 42 38 35 31 30 31 30 35 34 33 33 33 33 33 32 29 25 24 24 24 23 24 24 26 27 25 22 21 22 18 18 17 17 16 20 13 16 13 15 23 23
39 41 38 34 30 27 28 29 30 32 34 34 34 33 32 31 30 29 27 26 24 26 26 25 22 24 28 27 26 25 25 23 17 15 13 14 19 13 12 12 11 16 21 20
34 32 30 29 29 29 28 29 32 34 34 34 34 32 31 26 26 25 27 26 24 25 27 24 21 26 28 27 26 24 24 19 18 19 16 18 15 14 12 12 11 19 19 18
33 32 30 28 29 29 30 32 35 34 33 32 29 26 26 24 23 25 27 25 22 22 22 20 24 29 29 27 25 22 21 25 24 25 23 20 14 12 17 10 10 18 19 20
31 29 27 27 27 31 30 31 30 30 31 30 23 21 19 17 21 22 23 22 22 20 20 23 28 27 24 28 25 23 20 25 24 20 20 13 13 17 12 11 9 17 19 19
26 26 27 28 31 31 30 30 29 30 29 27 23 23 20 23 23 22 20 15 13 18 28 28 28 27 27 26 24 18 17 22 21 18 17 16 14 12 12 8 8 14 18 17
28 29 31 31 32 29 29 27 32 31 28 25 23 21 27 25 20 19 26 23 27 29 27 26 27 26 26 26 21 20 16 15 17 19 17 13 12 12 13 10 13 12 14 16
29 30 29 28 29 27 23 31 31 27 28 27 22 24 23 21 23 27 17 23 26 27 27 27 27 27 29 27 23 19 17 20 20 15 16 15 7 9 9 6 13 11 11 14
30 28 27 27 32 33 33 32 30 29 29 25 25 21 25 23 19 18 14 26 26 27 27 26 27 28 27 22 20 26 25 24 16 18 17 12 8 8 6 9 13 10 9 11
31 31 30 26 31 33 33 33 32 30 28 27 24 28 29 22 21 18 21 26 26 27 26 27 29 28 26 26 26 27 26 23 16 15 17 13 9 4 7 9 12 9 8 10
30 30 30 28 29 31 31 31 30 28 28 27 30 30 23 20 21 27 28 28 28 28 28 29 27 26 25 25 27 26 26 24 19 18 18 13 11 6 8 10 11 9 7 11
29 29 29 24 28 29 30 31 28 27 28 29 30 30 29 29 28 27 24 27 28 28 27 28 27 25 25 26 27 27 23 22 18 18 18 15 11 5 9 11 10 9 10 10
29 29 29 30 32 32 32 29 29 29 29 29 31 31 31 27 27 24 17 27 28 27 28 29 28 27 26 27 27 26 20 17 16 15 17 16 13 7 5 8 9 12 10 8
29 27 28 31 31 32 32 31 32 31 31 29 27 30 29 28 27 26 26 27 27 27 28 29 29 29 27 27 21 23 24 18 21 16 16 17 16 12 7 6 8 10 8 7

GFSNGP_sfc_dewp_006.txt.gz
Dewpoint
33 33 34 34 33 34 33 31 28 29 29 30 34 35 36 37 38 38 39 39 39 39 40 40 40 41 37 36 37 36 30 30 32 33 32 31 30 30 32 31 30 30 30 28
32 35 35 34 34 34 33 32 30 30 28 37 38 38 38 38 39 39 39 39 38 40 41 40 40 39 37 37 38 39 38 39 38 37 37 37 37 37 34 31 29 25 24 24
27 33 32 30 31 31 30 30 29 28 31 38 39 39 39 39 39 40 40 38 38 40 41 39 39 37 37 38 40 39 40 39 40 40 39 37 36 34 28 25 22 21 21 21
27 30 25 30 32 32 30 31 31 36 37 38 39 39 40 40 39 40 39 38 39 40 39 38 38 37 38 39 39 39 39 38 37 37 35 30 26 24 21 21 19 19 20 22
27 29 29 31 31 30 29 30 36 37 39 39 40 40 38 38 40 40 39 40 41 39 38 37 36 37 37 36 37 31 25 25 26 26 25 24 21 20 20 19 19 19 21 23
29 26 23 26 29 35 36 29 38 38 39 39 40 36 36 40 40 37 40 39 36 36 36 36 36 34 23 21 23 24 26 25 25 25 23 21 20 20 19 18 18 23 24 24
19 25 25 30 32 36 23 26 35 38 39 40 40 40 41 41 38 38 36 36 36 36 36 36 34 26 19 21 22 24 25 26 24 24 22 21 19 18 18 20 21 17 16 19
27 26 25 35 35 31 33 36 37 37 39 41 41 41 39 38 37 36 35 35 35 36 35 34 20 18 18 20 22 25 25 25 25 24 23 20 19 19 20 21 19 17 13 15
28 28 33 35 35 37 39 36 37 40 42 41 40 38 38 33 34 34 35 34 35 35 33 30 20 21 23 25 25 26 25 25 25 25 22 20 19 20 20 20 17 16 20 17
32 32 33 35 36 37 37 39 43 44 42 42 39 39 34 34 33 34 34 33 34 35 30 29 23 23 25 26 26 25 25 25 26 24 23 21 21 21 20 16 15 21 19 20
35 36 36 36 36 39 41 43 40 40 39 39 36 33 34 32 32 33 33 33 35 36 35 28 25 25 25 26 25 25 25 25 25 25 21 22 22 21 21 21 19 19 18 24
34 35 36 36 40 40 39 39 38 37 35 32 33 34 33 32 31 32 32 36 35 35 26 25 25 25 26 27 25 25 25 25 23 22 20 21 21 21 24 24 23 23 24 23
38 39 39 40 40 41 39 39 38 36 33 31 36 34 33 32 31 34 34 32 33 25 25 25 25 24 25 27 26 24 23 24 22 22 21 20 18 19 14 18 21 23 23 22
39 40 39 39 37 38 34 32 32 31 34 34 33 33 33 32 32 31 31 30 25 24 24 25 24 24 26 26 25 20 18 19 20 20 18 19 12 12 12 10 8 12 19 20
39 39 38 38 34 30 30 30 31 32 34 35 34 34 33 31 29 27 26 25 24 23 26 26 24 23 28 27 26 25 24 19 15 17 17 14 12 12 9 8 9 10 11 18
35 34 33 33 31 32 31 30 32 32 34 33 32 31 31 27 26 25 28 28 25 25 26 22 19 25 28 27 27 25 24 21 19 19 20 17 16 11 12 9 10 8 10 17
31 31 32 28 27 28 29 32 31 31 32 32 29 26 26 24 25 25 26 26 23 21 19 23 25 29 28 29 26 23 23 22 24 23 15 18 12 9 10 7 7 6 13 16
30 27 25 27 27 30 30 30 29 29 29 29 25 22 23 20 22 24 24 23 21 20 27 27 27 28 25 27 25 22 17 23 23 16 16 11 10 13 6 7 5 7 14 15
28 28 28 29 30 30 30 30 28 27 27 31 28 25 21 20 26 24 22 20 22 21 26 21 28 27 26 27 26 17 14 16 16 18 13 9 7 6 6 3 3 8 11 13
30 30 30 29 29 28 29 28 24 27 30 29 26 26 23 25 25 24 25 22 26 27 26 25 26 25 26 25 25 19 17 15 19 13 7 7 6 5 6 8 9 8 7 10
29 29 28 26 27 28 32 32 31 31 31 29 29 25 25 21 23 24 17 23 24 25 25 26 25 26 28 24 22 19 23 23 19 9 6 7 5 1 -1 6 11 7 6 9
29 27 26 25 25 27 29 32 28 30 31 29 22 25 23 24 20 18 19 25 27 27 26 26 26 27 26 24 24 25 25 24 19 7 9 9 8 3 0 5 8 6 6 7
30 29 29 26 27 28 31 32 29 32 31 29 24 26 27 25 22 18 21 25 26 27 26 26 27 26 25 25 26 26 25 24 16 13 12 11 8 2 -1 7 8 6 6 8
28 28 27 27 27 30 29 29 26 30 31 25 28 29 29 25 19 26 27 27 27 27 27 28 27 26 24 25 25 26 26 24 16 13 15 12 11 5 1 6 8 6 7 7
27 27 27 25 26 28 28 27 28 29 28 28 29 29 29 29 28 21 26 26 27 27 27 26 27 27 25 25 25 26 26 16 12 13 13 11 11 6 2 4 5 7 6 5
28 28 28 28 29 30 31 27 30 30 29 29 28 30 30 27 27 26 26 27 25 26 26 27 27 27 27 26 24 25 25 21 14 10 8 7 8 7 5 2 1 5 5 4
28 25 26 28 28 30 30 31 31 29 30 30 30 31 29 29 27 26 25 26 26 26 26 27 27 27 27 27 25 25 19 23 18 11 10 12 7 9 8 5 5 5 5 4

GFSNGP_sfc_dewp_009.txt.gz
Dewpoint
32 32 33 33 33 34 33 32 30 30 30 31 32 36 37 37 38 38 39 39 39 40 39 40 41 40 40 37 38 38 39 32 30 31 32 31 35 37 36 34 33 31 28 26
30 34 34 33 34 34 34 34 33 32 29 31 38 39 39 39 39 39 39 40 40 38 39 41 40 39 38 37 38 39 38 38 38 40 40 40 39 38 36 35 29 25 23 23
24 32 31 24 29 32 32 30 29 27 29 36 37 38 39 39 39 39 38 40 38 38 40 41 39 38 37 37 38 38 38 38 39 39 40 39 37 36 28 24 22 21 21 22
22 30 21 27 31 31 30 31 31 31 36 37 38 39 40 40 40 39 40 37 37 40 40 38 38 37 36 37 37 37 31 27 29 29 27 26 24 22 21 20 19 19 20 23
27 27 26 29 29 30 28 28 33 35 37 37 37 39 38 39 40 37 37 37 40 38 37 37 36 35 28 24 24 25 25 26 27 28 27 23 21 20 20 18 19 20 23 24
28 26 23 26 27 32 35 29 36 38 37 35 37 35 36 42 39 39 38 38 36 36 36 35 36 23 25 24 23 23 26 25 25 24 22 21 21 19 19 19 20 23 23 22
25 25 26 29 31 34 27 28 33 37 37 36 36 39 41 39 38 37 37 36 36 35 35 35 32 24 21 21 23 24 25 25 25 25 23 22 20 19 19 21 21 17 15 18
27 26 21 33 34 30 34 35 36 37 37 38 40 40 39 36 38 36 35 34 34 35 35 34 22 21 19 21 23 25 25 25 25 25 22 20 20 20 20 20 19 16 12 15
27 28 32 32 35 36 37 37 37 38 42 42 39 38 35 35 35 34 34 34 34 34 35 32 23 21 22 25 24 25 24 24 25 25 23 21 21 21 19 19 17 16 20 19
31 32 33 36 37 37 38 38 43 40 39 37 36 34 33 34 33 32 33 32 33 34 34 34 28 24 24 26 25 24 24 24 25 24 23 21 21 21 20 18 16 20 19 19
35 37 37 37 38 39 42 41 38 38 38 38 36 32 31 33 32 31 32 32 34 34 33 32 29 24 25 25 25 24 25 25 24 24 23 23 21 21 22 21 18 19 17 21
35 37 37 36 42 41 39 38 38 37 36 35 33 31 33 33 32 31 31 33 35 33 32 26 25 25 25 27 26 25 25 25 22 21 21 22 20 21 23 23 24 23 23 21
39 39 41 43 38 37 37 37 38 39 37 36 34 34 34 33 32 32 34 33 31 30 28 24 25 25 24 25 25 23 21 23 21 21 21 21 19 18 12 16 21 21 22 21
40 42 40 38 36 36 35 34 34 32 32 34 35 34 33 33 32 30 28 26 26 24 23 25 24 23 25 26 24 19 17 18 15 15 15 18 14 16 9 9 7 11 18 19
39 39 38 36 35 33 30 32 32 32 33 33 33 33 32 31 30 27 26 27 27 25 25 25 24 25 26 28 26 24 26 22 17 13 13 12 15 13 8 8 6 9 10 15
34 34 34 32 32 30 28 29 30 31 30 30 31 30 30 28 27 26 26 27 25 24 25 24 19 25 28 30 27 27 26 22 17 20 19 14 14 9 10 6 6 7 6 11
29 30 27 24 24 25 27 30 31 30 29 30 28 28 29 27 26 23 24 21 16 16 26 26 26 28 28 29 29 25 21 21 23 23 16 13 9 9 7 9 3 6 5 11
27 26 26 26 26 27 28 30 29 28 29 29 29 30 29 27 23 20 21 17 15 25 25 22 22 27 25 28 26 21 16 19 22 14 13 9 8 8 5 6 5 3 3 10
28 28 29 29 30 29 29 29 28 27 28 24 26 29 26 25 22 25 22 20 17 20 22 22 27 26 27 27 27 23 15 16 14 15 11 8 5 5 3 3 4 2 4 8
28 30 31 31 30 27 27 30 31 30 30 30 27 26 27 25 23 23 22 20 21 23 26 24 25 25 22 25 23 20 16 19 22 15 4 4 -1 -1 -3 3 8 4 1 4
26 27 27 27 27 25 23 28 28 29 29 27 30 29 28 22 19 19 21 24 23 24 25 25 25 25 27 26 25 24 23 24 22 9 5 4 -0 0 -2 -4 1 1 1 4
27 27 26 25 25 26 27 25 27 31 30 31 31 30 23 23 23 25 24 23 25 26 26 25 25 26 25 25 25 25 25 24 22 10 8 7 -0 -2 -3 -5 -0 1 1 3
27 27 27 25 25 26 26 25 28 29 29 30 32 27 27 26 26 24 23 23 26 26 26 26 26 27 25 25 25 25 25 24 23 10 12 10 7 -2 -3 -2 -2 1 1 4
27 27 27 27 24 22 24 27 26 26 24 26 26 29 28 27 25 25 25 25 25 26 27 27 27 26 25 23 25 25 25 25 20 10 11 11 6 3 -5 -4 -1 -3 -2 3
26 26 27 25 25 27 27 28 25 24 25 27 26 30 29 29 27 22 20 21 23 26 26 26 20 19 22 24 22 24 24 24 16 8 7 7 8 7 -3 -5 -5 -5 -3 1
27 28 29 28 28 29 29 30 29 30 28 28 27 28 29 29 28 27 26 25 24 25 25 26 25 23 23 20 20 22 18 19 17 11 9 7 5 9 6 -2 -5 -4 -2 -1
27 23 28 29 28 28 30 31 31 31 31 29 25 29 30 29 28 26 25 25 25 25 25 25 25 25 21 13 14 15 20 18 15 16 12 11 11 12 10 8 1 -1 -5 -3

GFSNGP_sfc_dewp_012.txt.gz
Dewpoint
30 31 31 32 32 32 32 31 30 29 30 32 34 33 37 38 38 39 39 39 39 40 40 39 39 41 40 39 38 38 39 37 35 35 35 37 37 37 37 36 37 33 27 25
29 32 32 31 33 34 34 33 33 33 33 34 33 38 39 38 39 39 39 39 40 39 38 39 41 40 39 38 38 39 38 37 39 40 39 38 38 38 37 37 37 30 23 23
23 30 29 20 24 30 31 32 31 27 28 32 35 37 36 37 39 39 39 39 35 34 35 39 39 38 37 37 37 38 34 32 34 34 32 31 33 32 26 23 22 21 21 22
23 29 17 26 30 30 30 30 30 30 31 35 37 36 37 39 39 38 37 37 36 35 39 37 37 36 35 30 30 28 28 29 30 30 30 28 23 21 21 20 19 20 21 24
29 26 26 28 27 29 28 27 31 32 36 36 36 36 36 39 39 38 38 38 37 38 36 35 35 29 23 24 25 27 30 30 28 25 23 23 22 21 20 19 20 21 23 23
28 25 22 26 27 31 35 28 35 37 34 35 35 33 36 39 39 38 35 37 37 35 34 35 35 25 27 28 27 25 25 25 24 25 24 22 20 19 19 20 21 23 21 21
26 26 28 30 31 33 26 28 33 36 35 36 34 39 37 36 34 31 35 36 35 34 34 35 35 28 25 22 23 24 25 25 25 25 23 21 20 20 20 20 22 17 15 18
25 26 22 31 33 29 32 35 35 36 35 40 39 37 36 34 32 31 35 34 34 33 34 35 34 24 21 20 23 25 25 24 24 25 23 20 21 21 20 20 19 17 13 16
30 28 32 32 35 35 36 36 36 37 41 39 36 35 34 33 32 32 34 32 33 33 34 34 32 23 30 32 28 25 23 23 24 25 23 21 21 21 21 19 17 16 20 19
32 33 35 38 38 38 39 40 40 39 39 37 36 35 35 34 31 33 32 31 32 33 34 33 33 30 25 25 25 23 23 23 24 23 23 22 22 21 21 18 17 20 19 18
34 37 38 37 38 41 41 40 39 39 37 35 34 34 34 32 32 33 32 31 32 33 32 32 32 30 25 25 25 24 24 24 24 24 23 23 23 21 22 21 18 20 17 17
34 36 38 40 42 42 39 38 39 38 35 35 35 34 33 34 33 32 32 31 32 33 32 32 28 25 25 25 25 25 25 25 21 21 20 22 21 20 22 23 23 22 21 20
38 41 42 41 39 39 38 38 37 34 36 36 34 34 32 32 32 33 32 31 29 27 27 24 25 25 25 24 23 22 20 22 19 20 20 18 17 17 15 17 20 20 21 20
41 41 39 39 36 36 35 33 32 32 33 33 33 32 32 31 31 30 30 27 26 26 24 25 25 25 26 26 24 18 16 16 16 19 14 14 8 13 13 8 7 9 15 18
38 38 37 36 33 30 28 28 28 28 31 31 31 30 30 30 30 30 28 26 27 27 26 26 25 26 27 28 27 24 24 20 17 11 10 10 8 10 7 5 4 6 10 13
35 34 29 25 25 25 24 24 27 28 30 29 30 30 30 29 29 29 27 26 24 24 25 25 25 25 28 29 29 28 24 21 16 14 16 12 10 7 10 7 6 7 9 7
29 25 26 26 25 25 24 25 28 29 30 30 28 29 29 28 26 27 23 20 15 18 23 26 22 25 27 29 28 25 21 19 19 21 15 12 7 6 6 10 8 7 4 0
26 26 26 27 27 28 27 27 28 28 28 29 28 27 29 28 25 26 18 17 13 22 24 22 22 25 25 27 27 25 21 16 16 13 12 7 7 6 3 4 6 5 1 6
28 28 28 29 30 30 29 28 27 26 30 31 29 28 28 28 26 23 23 25 22 19 22 20 25 25 25 24 26 24 22 16 15 21 10 5 1 2 -1 -3 2 -0 -1 5
26 25 26 26 27 25 26 27 25 26 28 27 31 30 30 29 29 22 23 23 24 24 24 24 24 24 24 25 24 23 19 20 20 14 1 2 -3 -4 -5 -2 3 -0 -6 0
25 26 25 25 25 25 24 24 23 24 26 23 30 30 29 30 25 23 19 24 25 22 25 25 25 25 26 25 25 24 24 23 22 11 4 4 1 -2 -7 -10 -8 -4 -5 -2
27 25 23 23 23 25 26 24 24 23 24 29 31 30 31 28 24 23 25 26 26 25 25 25 25 25 25 25 24 25 25 24 23 13 4 4 3 2 -3 -9 -7 -4 -5 -2
27 26 26 23 23 26 26 25 25 25 25 27 30 30 31 26 25 21 21 24 24 26 25 23 25 26 27 24 24 24 24 24 23 19 6 7 8 7 -1 -3 -8 -5 -6 -4
26 26 26 26 23 22 24 27 26 26 23 25 24 29 28 23 21 23 22 25 23 22 18 24 26 25 25 24 23 24 24 24 24 12 12 3 -0 3 0 -6 -6 -8 -10 -7
25 25 25 22 25 28 27 27 27 28 25 25 26 27 26 27 25 20 19 19 20 20 19 23 24 21 22 24 24 22 21 20 24 16 6 3 4 2 1 -5 -4 -3 -8 -9
26 27 28 27 28 28 28 28 29 30 31 30 24 24 25 24 23 24 26 26 20 21 23 24 25 23 20 16 21 23 23 18 17 16 13 12 8 12 10 6 1 3 2 -0
25 23 25 27 27 26 28 30 30 31 32 32 31 23 25 28 27 26 26 25 24 24 17 23 23 23 24 18 11 12 14 19 16 16 15 14 9 10 12 10 9 7 1 0